| time (UTC) | temp F | wind direction | speed MPH | gust MPH | rain 1hr in | rain 24hr in | rain mn in | humidity % | barometer mb |
| 20260906090517 | 91 | 241 | 1.0 | 4.0 | 0.00 | 0.00 | 0.00 | 38 | 1017.5 |
| 20260906085021 | 89 | 262 | 1.0 | 6.0 | 0.00 | 0.00 | 0.00 | 41 | 1017.4 |
| 20260906083515 | 89 | 216 | 1.0 | 4.0 | 0.00 | 0.00 | 0.00 | 37 | 1017.5 |
| 20260906082036 | 90 | 345 | 0.0 | 6.0 | 0.00 | 0.00 | 0.00 | 31 | 1017.5 |
| 20260906080516 | 89 | 310 | 2.0 | 6.0 | 0.00 | 0.00 | 0.00 | 31 | 1017.5 |
| 20260906075017 | 89 | 0 | 1.0 | 4.0 | 0.00 | 0.00 | 0.00 | 33 | 1017.6 |
| 20260906073518 | 88 | 320 | 0.0 | 2.0 | 0.00 | 0.00 | 0.00 | 33 | 1017.5 |
| 20260906072017 | 86 | 285 | 1.0 | 4.0 | 0.00 | 0.00 | 0.00 | 34 | 1017.5 |
| 20260906070515 | 85 | 333 | 1.0 | 3.0 | 0.00 | 0.00 | 0.00 | 34 | 1017.3 |
| 20260906065021 | 85 | 309 | 0.0 | 3.0 | 0.00 | 0.00 | 0.00 | 35 | 1017.3 |
| 20260906063516 | 83 | 234 | 0.0 | 0.0 | 0.00 | 0.00 | 0.00 | 37 | 1017.0 |
| 20260906060515 | 81 | 286 | 0.0 | 0.0 | 0.00 | 0.00 | 0.00 | 39 | 1016.8 |
| 20260906053513 | 79 | 296 | 0.0 | 0.0 | 0.00 | 0.00 | 0.00 | 39 | 1016.7 |
| 20260906052012 | 79 | 118 | 0.0 | 0.0 | 0.00 | 0.00 | 0.00 | 39 | 1016.6 |
| 20260906045014 | 76 | 118 | 0.0 | 0.0 | 0.00 | 0.00 | 0.00 | 40 | 1016.6 |
| 20260906043513 | 76 | 138 | 0.0 | 0.0 | 0.00 | 0.00 | 0.00 | 40 | 1016.6 |
| 20260906042017 | 76 | 145 | 0.0 | 0.0 | 0.00 | 0.00 | 0.00 | 39 | 1016.2 |
| 20260906040511 | 76 | 145 | 0.0 | 0.0 | 0.00 | 0.00 | 0.00 | 39 | 1016.1 |
| 20260906033509 | 75 | 145 | 0.0 | 0.0 | 0.00 | 0.00 | 0.00 | 40 | 1015.9 |
| 20260906032011 | 76 | 145 | 0.0 | 0.0 | 0.00 | 0.00 | 0.00 | 39 | 1015.9 |
| 20260906030509 | 76 | 147 | 0.0 | 0.0 | 0.00 | 0.00 | 0.00 | 37 | 1015.9 |
| 20260906025009 | 77 | 148 | 0.0 | 0.0 | 0.00 | 0.00 | 0.00 | 36 | 1015.7 |
| 20260906023514 | 76 | 149 | 0.0 | 2.0 | 0.00 | 0.00 | 0.00 | 37 | 1015.5 |
| 20260906022011 | 76 | 158 | 0.0 | 2.0 | 0.00 | 0.00 | 0.00 | 37 | 1015.6 |
| 20260906020509 | 77 | 141 | 1.0 | 2.0 | 0.00 | 0.00 | 0.00 | 36 | 1015.5 |
| 20260906015016 | 77 | 159 | 1.0 | 3.0 | 0.00 | 0.00 | 0.00 | 35 | 1015.7 |
| 20260906013508 | 77 | 147 | 0.0 | 2.0 | 0.00 | 0.00 | 0.00 | 36 | 1015.8 |
| 20260906012006 | 77 | 149 | 0.0 | 0.0 | 0.00 | 0.00 | 0.00 | 37 | 1015.9 |
| 20260906010509 | 77 | 152 | 0.0 | 1.0 | 0.00 | 0.00 | 0.00 | 36 | 1016.0 |
| 20260906005005 | 77 | 171 | 0.0 | 2.0 | 0.00 | 0.00 | 0.00 | 36 | 1015.9 |
| 20260906003506 | 77 | 137 | 1.0 | 2.0 | 0.00 | 0.00 | 0.00 | 36 | 1016.0 |
| 20260906002008 | 78 | 147 | 1.0 | 2.0 | 0.00 | 0.00 | 0.00 | 37 | 1015.8 |
| 20260905235004 | 78 | 161 | 0.0 | 2.0 | 0.00 | 0.00 | 0.00 | 36 | 1016.0 |
| 20260905233509 | 78 | 149 | 2.0 | 3.0 | 0.00 | 0.00 | 0.00 | 37 | 1016.1 |
| 20260905230502 | 78 | 178 | 1.0 | 2.0 | 0.00 | 0.00 | 0.00 | 36 | 1016.5 |
| 20260905225002 | 78 | 148 | 0.0 | 0.0 | 0.00 | 0.00 | 0.00 | 35 | 1016.5 |
| 20260905223502 | 78 | 148 | 0.0 | 0.0 | 0.00 | 0.00 | 0.00 | 35 | 1016.5 |
| 20260905220501 | 79 | 172 | 0.0 | 2.0 | 0.00 | 0.00 | 0.00 | 34 | 1016.5 |
| 20260905215004 | 79 | 151 | 2.0 | 3.0 | 0.00 | 0.00 | 0.00 | 35 | 1016.5 |
| 20260905212005 | 80 | 175 | 0.0 | 0.0 | 0.00 | 0.00 | 0.00 | 35 | 1016.8 |
| 20260905210501 | 81 | 238 | 0.0 | 0.0 | 0.00 | 0.00 | 0.00 | 35 | 1016.7 |
| 20260905205005 | 80 | 130 | 0.0 | 0.0 | 0.00 | 0.00 | 0.00 | 35 | 1016.6 |
| 20260905203502 | 80 | 171 | 0.0 | 2.0 | 0.00 | 0.00 | 0.00 | 35 | 1016.5 |
| 20260905202002 | 80 | 59 | 0.0 | 2.0 | 0.00 | 0.00 | 0.00 | 35 | 1016.5 |
| 20260905200507 | 81 | 16 | 1.0 | 3.0 | 0.00 | 0.00 | 0.00 | 35 | 1016.6 |
| 20260905195003 | 82 | 0 | 0.0 | 2.0 | 0.00 | 0.00 | 0.00 | 33 | 1016.6 |
| 20260905193502 | 82 | 66 | 0.0 | 1.0 | 0.00 | 0.00 | 0.00 | 34 | 1016.6 |
| 20260905192002 | 82 | 182 | 0.0 | 4.0 | 0.00 | 0.00 | 0.00 | 34 | 1016.6 |
| 20260905185001 | 82 | 124 | 1.0 | 4.0 | 0.00 | 0.00 | 0.00 | 35 | 1016.6 |
| 20260905183504 | 83 | 63 | 2.0 | 6.0 | 0.00 | 0.00 | 0.00 | 35 | 1016.6 |
| 20260905175005 | 83 | 28 | 2.0 | 6.0 | 0.00 | 0.00 | 0.00 | 35 | 1016.2 |
| 20260905173501 | 83 | 68 | 1.0 | 3.0 | 0.00 | 0.00 | 0.00 | 36 | 1016.1 |
| 20260905172001 | 84 | 103 | 0.0 | 4.0 | 0.00 | 0.00 | 0.00 | 34 | 1016.0 |
| 20260905163501 | 86 | 6 | 2.0 | 6.0 | 0.00 | 0.00 | 0.00 | 33 | 1015.8 |
| 20260905162005 | 87 | 1 | 1.0 | 10.0 | 0.00 | 0.00 | 0.00 | 32 | 1015.8 |
| 20260905160501 | 87 | 1 | 4.0 | 9.0 | 0.00 | 0.00 | 0.00 | 31 | 1015.9 |
| 20260905153501 | 88 | 82 | 5.0 | 12.0 | 0.00 | 0.00 | 0.00 | 30 | 1015.9 |
| 20260905150501 | 89 | 344 | 4.0 | 11.0 | 0.00 | 0.00 | 0.00 | 31 | 1015.9 |
| 20260905145001 | 89 | 310 | 5.0 | 10.0 | 0.00 | 0.00 | 0.00 | 31 | 1015.7 |
| 20260905142004 | 90 | 195 | 2.0 | 12.0 | 0.00 | 0.00 | 0.00 | 32 | 1015.6 |
| 20260905140501 | 89 | 14 | 4.0 | 13.0 | 0.00 | 0.00 | 0.00 | 32 | 1015.7 |
| 20260905135001 | 89 | 11 | 5.0 | 12.0 | 0.00 | 0.00 | 0.00 | 32 | 1015.8 |
| 20260905133501 | 91 | 348 | 2.0 | 12.0 | 0.00 | 0.00 | 0.00 | 32 | 1015.8 |
| 20260905132003 | 90 | 343 | 5.0 | 11.0 | 0.00 | 0.00 | 0.00 | 31 | 1015.9 |
| 20260905130503 | 90 | 358 | 3.0 | 12.0 | 0.00 | 0.00 | 0.00 | 31 | 1015.9 |
| 20260905125002 | 90 | 103 | 5.0 | 16.0 | 0.00 | 0.00 | 0.00 | 31 | 1016.0 |
| 20260905123501 | 90 | 14 | 5.0 | 13.0 | 0.00 | 0.00 | 0.00 | 30 | 1016.1 |
| 20260905120500 | 89 | 135 | 4.0 | 15.0 | 0.00 | 0.00 | 0.00 | 33 | 1016.5 |
| 20260905115001 | 89 | 347 | 4.0 | 12.0 | 0.00 | 0.00 | 0.00 | 33 | 1016.5 |
| 20260905113503 | 89 | 0 | 4.0 | 12.0 | 0.00 | 0.00 | 0.00 | 32 | 1016.5 |
| 20260905110501 | 89 | 4 | 5.0 | 13.0 | 0.00 | 0.00 | 0.00 | 32 | 1016.6 |
| 20260905105000 | 88 | 353 | 3.0 | 15.0 | 0.00 | 0.00 | 0.00 | 33 | 1016.7 |
| 20260905103501 | 88 | 8 | 5.0 | 15.0 | 0.00 | 0.00 | 0.00 | 33 | 1016.8 |
| 20260905102001 | 88 | 0 | 9.0 | 19.0 | 0.00 | 0.00 | 0.00 | 31 | 1016.8 |
| 20260905100504 | 88 | 0 | 7.0 | 18.0 | 0.00 | 0.00 | 0.00 | 32 | 1016.8 |
| 20260905095001 | 87 | 358 | 8.0 | 14.0 | 0.00 | 0.00 | 0.00 | 32 | 1016.8 |
| 20260905093508 | 87 | 120 | 5.0 | 18.0 | 0.00 | 0.00 | 0.00 | 32 | 1016.7 |
| 20260905092003 | 87 | 0 | 10.0 | 19.0 | 0.00 | 0.00 | 0.00 | 32 | 1016.8 |